Location: Recife
(8.0585°S, 34.8848°W)
Time: 12:56:09
(UTC-03:00)

Vanguard 1 - Pass Details

Date: 17 April 2026
Orbit: 654 x 3817 km, 34.3° (Epoch: 11 May)

Event Time Altitude Azimuth Distance (km) Brightness Sun altitude
Rises 19:21:57 0° 247° (WSW) 5,525 14.7 -31.5°
Reaches altitude 10° 19:25:04 10° 252° (WSW) 4,869 14.3 -32.3°
Maximum altitude 19:39:55 55° 325° (NW) 3,689 12.9 -36.0°
Drops below altitude 10° 20:02:12 10° 37° (NE) 6,908 14.1 -41.4°
Sets 20:07:52 0° 42° (NE) 7,874 14.4 -42.8°
